,,PressureMeas_1m,,PRMeasQMR101_1,,RHStat155_1m_1,,SRMeasQMS101R_1m,,TAStat155_1m_1,,GenWind_1,,GenWind_1,
2019-01-13, 07:00:06,VALID,917.864,VALID,0.0,VALID,95.644,VALID,37.867,VALID,18.921,INVALID,360.0,VALID,0.0,
2019-01-13, 07:01:06,VALID,917.855,VALID,0.0,VALID,95.81,VALID,38.947,VALID,18.94,INVALID,360.0,VALID,0.0,
2019-01-13, 07:02:06,VALID,917.867,VALID,0.0,VALID,95.717,VALID,40.914,VALID,18.946,INVALID,360.0,VALID,0.0,
2019-01-13, 07:03:06,VALID,917.867,VALID,0.0,VALID,95.733,VALID,43.388,VALID,18.964,INVALID,360.0,VALID,0.0,
2019-01-13, 07:04:06,VALID,917.877,VALID,0.0,VALID,95.777,VALID,46.567,VALID,18.988,INVALID,360.0,VALID,0.0,
2019-01-13, 07:05:06,VALID,917.895,VALID,0.0,VALID,95.711,VALID,49.646,VALID,19.02,INVALID,360.0,VALID,0.0,
2019-01-13, 07:06:06,VALID,917.928,VALID,0.0,VALID,95.577,VALID,52.113,VALID,19.047,INVALID,360.0,VALID,0.0,
2019-01-13, 07:07:06,VALID,917.955,VALID,0.0,VALID,95.501,VALID,54.37,VALID,19.082,INVALID,360.0,VALID,0.0,
2019-01-13, 07:08:06,VALID,917.979,VALID,0.0,VALID,95.363,VALID,56.548,VALID,19.118,INVALID,360.0,VALID,0.0,
2019-01-13, 07:09:06,VALID,917.993,VALID,0.0,VALID,95.228,VALID,58.589,VALID,19.162,INVALID,360.0,VALID,0.0,
2019-01-13, 07:10:06,VALID,917.994,VALID,0.0,VALID,95.109,VALID,60.811,VALID,19.213,INVALID,360.0,VALID,0.0,
2019-01-13, 07:11:06,VALID,918.013,VALID,0.0,VALID,94.898,VALID,63.27,VALID,19.255,INVALID,360.0,VALID,0.0,
2019-01-13, 07:12:06,VALID,918.02,VALID,0.0,VALID,94.786,VALID,66.038,VALID,19.3,INVALID,360.0,VALID,0.0,
2019-01-13, 07:13:06,VALID,918.047,VALID,0.0,VALID,94.658,VALID,68.986,VALID,19.332,INVALID,360.0,VALID,0.0,
2019-01-13, 07:14:06,VALID,918.058,VALID,0.0,VALID,94.558,VALID,71.664,VALID,19.366,INVALID,360.0,VALID,0.0,
2019-01-13, 07:15:06,VALID,918.074,VALID,0.0,VALID,94.514,VALID,73.937,VALID,19.402,INVALID,360.0,VALID,0.0,
2019-01-13, 07:16:06,VALID,918.084,VALID,0.0,VALID,94.313,VALID,76.259,VALID,19.412,INVALID,360.0,VALID,0.0,
2019-01-13, 07:17:06,VALID,918.093,VALID,0.0,VALID,94.16,VALID,78.993,VALID,19.413,INVALID,360.0,VALID,0.0,
2019-01-13, 07:18:06,VALID,918.112,VALID,0.0,VALID,94.107,VALID,82.429,VALID,19.422,INVALID,360.0,VALID,0.0,
2019-01-13, 07:19:06,VALID,918.101,VALID,0.0,VALID,94.056,VALID,86.333,VALID,19.433,INVALID,360.0,VALID,0.0,
2019-01-13, 07:20:06,VALID,918.116,VALID,0.0,VALID,94.176,VALID,90.673,VALID,19.46,INVALID,360.0,VALID,0.0,
2019-01-13, 07:21:06,VALID,918.135,VALID,0.0,VALID,94.181,VALID,95.061,VALID,19.493,INVALID,360.0,VALID,0.0,
2019-01-13, 07:22:06,VALID,918.158,VALID,0.0,VALID,94.116,VALID,99.351,VALID,19.545,INVALID,360.0,VALID,0.0,
2019-01-13, 07:23:06,VALID,918.184,VALID,0.0,VALID,94.065,VALID,103.052,VALID,19.611,INVALID,360.0,VALID,0.0,
2019-01-13, 07:24:06,VALID,918.224,VALID,0.0,VALID,93.779,VALID,106.456,VALID,19.655,INVALID,360.0,VALID,0.0,
2019-01-13, 07:25:06,VALID,918.248,VALID,0.0,VALID,93.374,VALID,109.362,VALID,19.676,INVALID,360.0,VALID,0.0,
2019-01-13, 07:26:06,VALID,918.258,VALID,0.0,VALID,93.678,VALID,112.208,VALID,19.727,INVALID,360.0,VALID,0.0,
2019-01-13, 07:27:06,VALID,918.264,VALID,0.0,VALID,93.509,VALID,116.017,VALID,19.757,INVALID,360.0,VALID,0.0,
2019-01-13, 07:28:06,VALID,918.28,VALID,0.0,VALID,93.2,VALID,120.418,VALID,19.786,INVALID,360.0,VALID,0.0,
2019-01-13, 07:29:06,VALID,918.274,VALID,0.0,VALID,92.784,VALID,123.496,VALID,19.826,INVALID,360.0,VALID,0.0,
2019-01-13, 07:30:06,VALID,918.303,VALID,0.0,VALID,92.979,VALID,126.459,VALID,19.91,INVALID,360.0,VALID,0.0,
2019-01-13, 07:31:06,VALID,918.308,VALID,0.0,VALID,92.75,VALID,131.558,VALID,19.984,INVALID,360.0,VALID,0.0,
2019-01-13, 07:32:06,VALID,918.325,VALID,0.0,VALID,92.061,VALID,137.914,VALID,20.038,INVALID,360.0,VALID,0.0,
2019-01-13, 07:33:06,VALID,918.348,VALID,0.0,VALID,91.467,VALID,143.294,VALID,20.063,INVALID,360.0,VALID,0.0,
2019-01-13, 07:34:06,VALID,918.353,VALID,0.0,VALID,91.745,VALID,147.565,VALID,20.076,INVALID,360.0,VALID,0.0,
2019-01-13, 07:35:06,VALID,918.35,VALID,0.0,VALID,91.654,VALID,151.755,VALID,20.11,INVALID,360.0,VALID,0.0,
2019-01-13, 07:36:06,VALID,918.367,VALID,0.0,VALID,91.329,VALID,155.85,VALID,20.122,INVALID,360.0,VALID,0.0,
2019-01-13, 07:37:06,VALID,918.377,VALID,0.0,VALID,91.619,VALID,160.312,VALID,20.151,INVALID,360.0,VALID,0.0,
2019-01-13, 07:38:06,VALID,918.38,VALID,0.0,VALID,91.3,VALID,164.548,VALID,20.178,INVALID,360.0,VALID,0.0,
2019-01-13, 07:39:06,VALID,918.397,VALID,0.0,VALID,91.406,VALID,167.916,VALID,20.222,INVALID,360.0,VALID,0.0,
2019-01-13, 07:40:06,VALID,918.411,VALID,0.0,VALID,91.159,VALID,172.615,VALID,20.253,INVALID,360.0,VALID,0.0,
2019-01-13, 07:41:06,VALID,918.441,VALID,0.0,VALID,90.771,VALID,176.772,VALID,20.274,INVALID,360.0,VALID,0.0,
2019-01-13, 07:42:06,VALID,918.469,VALID,0.0,VALID,91.23,VALID,179.869,VALID,20.367,INVALID,360.0,VALID,0.0,
2019-01-13, 07:43:06,VALID,918.487,VALID,0.0,VALID,90.901,VALID,183.312,VALID,20.465,INVALID,360.0,VALID,0.0,
2019-01-13, 07:44:06,VALID,918.502,VALID,0.0,VALID,90.111,VALID,187.896,VALID,20.49,INVALID,360.0,VALID,0.0,
2019-01-13, 07:45:06,VALID,918.515,VALID,0.0,VALID,89.954,VALID,192.56,VALID,20.48,INVALID,360.0,VALID,0.0,
2019-01-13, 07:46:06,VALID,918.53,VALID,0.0,VALID,90.326,VALID,197.185,VALID,20.536,INVALID,360.0,VALID,0.0,
2019-01-13, 07:47:06,VALID,918.526,VALID,0.0,VALID,89.887,VALID,201.866,VALID,20.569,INVALID,360.0,VALID,0.0,
2019-01-13, 07:48:06,VALID,918.532,VALID,0.0,VALID,90.18,VALID,206.084,VALID,20.588,INVALID,360.0,VALID,0.0,
2019-01-13, 07:49:06,VALID,918.531,VALID,0.0,VALID,90.361,VALID,209.838,VALID,20.668,INVALID,360.0,VALID,0.0,
2019-01-13, 07:50:06,VALID,918.527,VALID,0.0,VALID,89.719,VALID,212.235,VALID,20.756,INVALID,360.0,VALID,0.0,
2019-01-13, 07:51:06,VALID,918.527,VALID,0.0,VALID,89.198,VALID,216.544,VALID,20.867,INVALID,360.0,VALID,0.0,
2019-01-13, 07:52:06,VALID,918.527,VALID,0.0,VALID,88.624,VALID,222.152,VALID,20.961,INVALID,360.0,VALID,0.0,
2019-01-13, 07:53:06,VALID,918.549,VALID,0.0,VALID,88.379,VALID,228.045,VALID,20.98,INVALID,360.0,VALID,0.0,
2019-01-13, 07:54:06,VALID,918.536,VALID,0.0,VALID,88.621,VALID,233.686,VALID,20.949,INVALID,360.0,VALID,0.0,
2019-01-13, 07:55:06,VALID,918.554,VALID,0.0,VALID,88.976,VALID,238.275,VALID,20.907,INVALID,360.0,VALID,0.0,
2019-01-13, 07:56:06,VALID,918.588,VALID,0.0,VALID,89.163,VALID,243.028,VALID,20.929,INVALID,360.0,VALID,0.0,
2019-01-13, 07:57:06,VALID,918.586,VALID,0.0,VALID,89.431,VALID,248.441,VALID,21.051,INVALID,360.0,VALID,0.0,
2019-01-13, 07:58:06,VALID,918.637,VALID,0.0,VALID,88.004,VALID,255.996,VALID,21.172,INVALID,360.0,VALID,0.0,
2019-01-13, 07:59:06,VALID,918.651,VALID,0.0,VALID,87.595,VALID,260.527,VALID,21.284,INVALID,360.0,VALID,0.0,
2019-01-13, 08:00:06,VALID,918.665,VALID,0.0,VALID,87.679,VALID,263.253,VALID,21.438,INVALID,360.0,VALID,0.0,
2019-01-13, 08:01:06,VALID,918.68,VALID,0.0,VALID,86.889,VALID,266.612,VALID,21.581,INVALID,360.0,VALID,0.0,
2019-01-13, 08:02:06,VALID,918.698,VALID,0.0,VALID,86.612,VALID,270.184,VALID,21.724,INVALID,360.0,VALID,0.0,
2019-01-13, 08:03:06,VALID,918.694,VALID,0.0,VALID,84.584,VALID,274.516,VALID,21.832,INVALID,360.0,VALID,0.0,
2019-01-13, 08:04:06,VALID,918.716,VALID,0.0,VALID,84.574,VALID,279.561,VALID,21.95,INVALID,360.0,VALID,0.0,
2019-01-13, 08:05:06,VALID,918.721,VALID,0.0,VALID,84.259,VALID,283.014,VALID,22.059,INVALID,360.0,VALID,0.0,
2019-01-13, 08:06:06,VALID,918.737,VALID,0.0,VALID,83.954,VALID,286.898,VALID,22.204,INVALID,360.0,VALID,0.0,
2019-01-13, 08:07:06,VALID,918.764,VALID,0.0,VALID,82.277,VALID,292.07,VALID,22.311,INVALID,360.0,VALID,0.0,
2019-01-13, 08:08:06,VALID,918.777,VALID,0.0,VALID,82.014,VALID,295.796,VALID,22.363,INVALID,360.0,VALID,0.0,
2019-01-13, 08:09:06,VALID,918.79,VALID,0.0,VALID,81.561,VALID,300.178,VALID,22.285,INVALID,360.0,VALID,0.0,
2019-01-13, 08:10:06,VALID,918.782,VALID,0.0,VALID,82.073,VALID,301.342,VALID,22.255,INVALID,360.0,VALID,0.0,
2019-01-13, 08:11:06,VALID,918.775,VALID,0.0,VALID,81.983,VALID,300.447,VALID,22.358,INVALID,360.0,VALID,0.0,
2019-01-13, 08:12:06,VALID,918.761,VALID,0.0,VALID,81.87,VALID,299.377,VALID,22.441,INVALID,360.0,VALID,0.0,
2019-01-13, 08:13:06,VALID,918.748,VALID,0.0,VALID,81.519,VALID,303.287,VALID,22.47,INVALID,360.0,VALID,0.0,
2019-01-13, 08:14:06,VALID,918.743,VALID,0.0,VALID,80.502,VALID,306.366,VALID,22.454,INVALID,360.0,VALID,0.0,
2019-01-13, 08:15:06,VALID,918.729,VALID,0.0,VALID,80.69,VALID,311.235,VALID,22.509,INVALID,360.0,VALID,0.0,
2019-01-13, 08:16:06,VALID,918.733,VALID,0.0,VALID,80.641,VALID,315.091,VALID,22.664,INVALID,360.0,VALID,0.0,
2019-01-13, 08:17:06,VALID,918.756,VALID,0.0,VALID,79.753,VALID,319.752,VALID,22.83,INVALID,360.0,VALID,0.0,
2019-01-13, 08:18:06,VALID,918.78,VALID,0.0,VALID,79.642,VALID,323.773,VALID,22.903,INVALID,360.0,VALID,0.0,
2019-01-13, 08:19:06,VALID,918.81,VALID,0.0,VALID,80.002,VALID,327.419,VALID,23.01,INVALID,360.0,VALID,0.0,
2019-01-13, 08:20:06,VALID,918.821,VALID,0.0,VALID,79.36,VALID,327.816,VALID,23.054,INVALID,360.0,VALID,0.0,
2019-01-13, 08:21:06,VALID,918.837,VALID,0.0,VALID,79.438,VALID,332.892,VALID,23.145,INVALID,360.0,VALID,0.0,
2019-01-13, 08:22:06,VALID,918.827,VALID,0.0,VALID,78.528,VALID,342.194,VALID,23.313,INVALID,360.0,VALID,0.0,
2019-01-13, 08:23:06,VALID,918.834,VALID,0.0,VALID,78.279,VALID,347.112,VALID,23.301,INVALID,360.0,VALID,0.0,
2019-01-13, 08:24:06,VALID,918.844,VALID,0.0,VALID,78.372,VALID,351.238,VALID,23.272,INVALID,360.0,VALID,0.0,
2019-01-13, 08:25:06,VALID,918.844,VALID,0.0,VALID,79.4,VALID,357.736,VALID,23.187,INVALID,360.0,VALID,0.0,
2019-01-13, 08:26:06,VALID,918.846,VALID,0.0,VALID,79.631,VALID,364.188,VALID,23.328,INVALID,360.0,VALID,0.0,
2019-01-13, 08:27:06,VALID,918.846,VALID,0.0,VALID,77.91,VALID,368.22,VALID,23.421,INVALID,360.0,VALID,0.0,
2019-01-13, 08:28:06,VALID,918.829,VALID,0.0,VALID,78.318,VALID,371.611,VALID,23.264,INVALID,360.0,VALID,0.0,
2019-01-13, 08:29:06,VALID,918.839,VALID,0.0,VALID,78.734,VALID,373.645,VALID,23.221,INVALID,360.0,VALID,0.0,
2019-01-13, 08:30:06,VALID,918.839,VALID,0.0,VALID,79.06,VALID,376.517,VALID,23.427,INVALID,360.0,VALID,0.0,
2019-01-13, 08:31:06,VALID,918.843,VALID,0.0,VALID,77.518,VALID,381.585,VALID,23.678,VALID,37.0,VALID,0.0,
2019-01-13, 08:32:06,VALID,918.857,VALID,0.0,VALID,77.467,VALID,385.935,VALID,23.73,INVALID,360.0,VALID,0.0,
2019-01-13, 08:33:06,VALID,918.868,VALID,0.0,VALID,77.339,VALID,388.212,VALID,23.809,INVALID,360.0,VALID,0.0,
2019-01-13, 08:34:06,VALID,918.872,VALID,0.0,VALID,77.058,VALID,392.321,VALID,23.788,INVALID,360.0,VALID,0.0,
2019-01-13, 08:35:06,VALID,918.868,VALID,0.0,VALID,76.766,VALID,393.266,VALID,23.793,INVALID,360.0,VALID,0.0,
2019-01-13, 08:36:06,VALID,918.862,VALID,0.0,VALID,77.23,VALID,398.289,VALID,23.83,INVALID,360.0,VALID,0.0,
2019-01-13, 08:37:06,VALID,918.856,VALID,0.0,VALID,76.85,VALID,400.365,VALID,23.921,INVALID,360.0,VALID,0.0,
2019-01-13, 08:38:06,VALID,918.837,VALID,0.0,VALID,76.88,VALID,403.613,VALID,23.844,INVALID,360.0,VALID,0.0,
2019-01-13, 08:39:06,VALID,918.843,VALID,0.0,VALID,77.314,VALID,407.029,VALID,23.786,INVALID,360.0,VALID,0.0,
2019-01-13, 08:40:06,VALID,918.838,VALID,0.0,VALID,76.447,VALID,410.735,VALID,23.665,INVALID,360.0,VALID,0.0,
2019-01-13, 08:41:06,VALID,918.835,VALID,0.0,VALID,77.737,VALID,413.124,VALID,23.587,INVALID,360.0,VALID,0.0,
2019-01-13, 08:42:06,VALID,918.836,VALID,0.0,VALID,78.194,VALID,415.27,VALID,23.655,INVALID,360.0,VALID,0.0,
2019-01-13, 08:43:06,VALID,918.838,VALID,0.0,VALID,77.601,VALID,416.166,VALID,23.59,INVALID,360.0,VALID,0.0,
2019-01-13, 08:44:06,VALID,918.834,VALID,0.0,VALID,78.034,VALID,419.191,VALID,23.493,INVALID,360.0,VALID,0.0,
2019-01-13, 08:45:06,VALID,918.824,VALID,0.0,VALID,78.5,VALID,422.057,VALID,23.547,INVALID,360.0,VALID,0.0,
2019-01-13, 08:46:06,VALID,918.828,VALID,0.0,VALID,78.339,VALID,423.884,VALID,23.615,INVALID,360.0,VALID,0.0,
2019-01-13, 08:47:06,VALID,918.827,VALID,0.0,VALID,78.298,VALID,425.465,VALID,23.693,INVALID,360.0,VALID,0.0,
2019-01-13, 08:48:06,VALID,918.843,VALID,0.0,VALID,77.613,VALID,431.07,VALID,23.792,INVALID,360.0,VALID,0.0,
2019-01-13, 08:49:06,VALID,918.845,VALID,0.0,VALID,78.179,VALID,436.039,VALID,24.012,INVALID,360.0,VALID,0.0,
2019-01-13, 08:50:06,VALID,918.883,VALID,0.0,VALID,76.754,VALID,440.843,VALID,24.189,INVALID,360.0,VALID,0.0,
2019-01-13, 08:51:06,VALID,918.879,VALID,0.0,VALID,75.607,VALID,442.883,VALID,24.214,INVALID,360.0,VALID,0.0,
2019-01-13, 08:52:06,VALID,918.893,VALID,0.0,VALID,76.131,VALID,446.653,VALID,24.219,INVALID,360.0,VALID,0.0,
2019-01-13, 08:53:06,VALID,918.905,VALID,0.0,VALID,76.126,VALID,448.566,VALID,24.223,INVALID,360.0,VALID,0.0,
2019-01-13, 08:54:06,VALID,918.913,VALID,0.0,VALID,76.097,VALID,449.198,VALID,24.144,INVALID,360.0,VALID,0.0,
2019-01-13, 08:55:06,VALID,918.909,VALID,0.0,VALID,76.275,VALID,452.512,VALID,23.992,INVALID,360.0,VALID,0.0,
2019-01-13, 08:56:06,VALID,918.892,VALID,0.0,VALID,76.795,VALID,456.44,VALID,24.034,INVALID,360.0,VALID,0.0,
2019-01-13, 08:57:06,VALID,918.9,VALID,0.0,VALID,76.898,VALID,460.282,VALID,24.181,INVALID,360.0,VALID,0.0,
2019-01-13, 08:58:06,VALID,918.896,VALID,0.0,VALID,76.445,VALID,461.944,VALID,24.438,INVALID,360.0,VALID,0.0,
2019-01-13, 08:59:06,VALID,918.873,VALID,0.0,VALID,73.744,VALID,464.655,VALID,24.44,INVALID,360.0,VALID,0.0,
2019-01-13, 09:00:06,VALID,918.864,VALID,0.0,VALID,75.334,VALID,467.169,VALID,24.567,INVALID,360.0,VALID,0.0,
2019-01-13, 09:01:06,VALID,918.873,VALID,0.0,VALID,74.264,VALID,473.121,VALID,24.864,INVALID,360.0,VALID,0.0,
2019-01-13, 09:02:06,VALID,918.855,VALID,0.0,VALID,74.785,VALID,473.1,VALID,25.08,INVALID,360.0,VALID,0.0,
2019-01-13, 09:03:06,VALID,918.859,VALID,0.0,VALID,74.723,VALID,479.16,VALID,25.073,INVALID,360.0,VALID,0.0,
2019-01-13, 09:04:06,VALID,918.851,VALID,0.0,VALID,72.44,VALID,484.492,VALID,25.162,INVALID,360.0,VALID,0.0,
2019-01-13, 09:05:06,VALID,918.858,VALID,0.0,VALID,72.493,VALID,485.589,VALID,25.177,INVALID,360.0,VALID,0.0,
2019-01-13, 09:06:06,VALID,918.848,VALID,0.0,VALID,72.038,VALID,488.874,VALID,25.147,INVALID,360.0,VALID,0.0,
2019-01-13, 09:07:06,VALID,918.856,VALID,0.0,VALID,72.896,VALID,491.171,VALID,25.074,INVALID,360.0,VALID,0.0,
2019-01-13, 09:08:06,VALID,918.851,VALID,0.0,VALID,74.654,VALID,495.151,VALID,24.963,INVALID,360.0,VALID,0.0,
2019-01-13, 09:09:06,VALID,918.847,VALID,0.0,VALID,73.483,VALID,499.043,VALID,24.847,INVALID,360.0,VALID,0.0,
2019-01-13, 09:10:06,VALID,918.867,VALID,0.0,VALID,73.747,VALID,499.144,VALID,24.773,INVALID,360.0,VALID,0.0,
2019-01-13, 09:11:06,VALID,918.87,VALID,0.0,VALID,73.943,VALID,459.7,VALID,24.684,INVALID,360.0,VALID,0.0,
2019-01-13, 09:12:06,VALID,918.862,VALID,0.0,VALID,74.669,VALID,496.985,VALID,24.336,INVALID,360.0,VALID,0.0,
2019-01-13, 09:13:06,VALID,918.886,VALID,0.0,VALID,76.406,VALID,510.874,VALID,24.118,INVALID,360.0,VALID,0.0,
2019-01-13, 09:14:06,VALID,918.899,VALID,0.0,VALID,76.175,VALID,513.795,VALID,24.276,INVALID,360.0,VALID,0.0,
2019-01-13, 09:15:06,VALID,918.914,VALID,0.0,VALID,74.538,VALID,520.299,VALID,24.484,INVALID,360.0,VALID,0.0,
2019-01-13, 09:16:06,VALID,918.912,VALID,0.0,VALID,73.799,VALID,524.684,VALID,24.542,INVALID,360.0,VALID,0.0,
2019-01-13, 09:17:06,VALID,918.923,VALID,0.0,VALID,73.304,VALID,525.85,VALID,24.385,INVALID,360.0,VALID,0.0,
2019-01-13, 09:18:06,VALID,918.931,VALID,0.0,VALID,74.409,VALID,525.455,VALID,24.351,INVALID,360.0,VALID,0.0,
2019-01-13, 09:19:06,VALID,918.939,VALID,0.0,VALID,74.285,VALID,528.81,VALID,24.584,INVALID,360.0,VALID,0.0,
2019-01-13, 09:20:06,VALID,918.956,VALID,0.0,VALID,72.803,VALID,535.469,VALID,24.59,INVALID,360.0,VALID,0.0,
2019-01-13, 09:21:06,VALID,918.942,VALID,0.0,VALID,73.092,VALID,539.757,VALID,24.605,INVALID,360.0,VALID,0.0,
2019-01-13, 09:22:06,VALID,918.946,VALID,0.0,VALID,72.241,VALID,544.031,VALID,24.844,INVALID,360.0,VALID,0.0,
2019-01-13, 09:23:06,VALID,918.965,VALID,0.0,VALID,71.007,VALID,548.072,VALID,24.989,INVALID,360.0,VALID,0.0,
2019-01-13, 09:24:06,VALID,918.986,VALID,0.0,VALID,70.932,VALID,552.119,VALID,25.145,INVALID,360.0,VALID,0.0,
2019-01-13, 09:25:06,VALID,919.002,VALID,0.0,VALID,70.557,VALID,557.531,VALID,25.092,INVALID,360.0,VALID,0.0,
2019-01-13, 09:26:06,VALID,919.031,VALID,0.0,VALID,71.041,VALID,562.427,VALID,24.94,INVALID,360.0,VALID,0.0,
2019-01-13, 09:27:06,VALID,919.054,VALID,0.0,VALID,73.195,VALID,566.306,VALID,25.034,INVALID,360.0,VALID,0.0,
2019-01-13, 09:28:06,VALID,919.062,VALID,0.0,VALID,70.438,VALID,571.429,VALID,25.123,INVALID,360.0,VALID,0.0,
2019-01-13, 09:29:06,VALID,919.056,VALID,0.0,VALID,70.23,VALID,581.099,VALID,25.238,INVALID,360.0,VALID,0.0,
2019-01-13, 09:30:06,VALID,919.046,VALID,0.0,VALID,71.557,VALID,583.926,VALID,25.376,INVALID,360.0,VALID,0.0,
2019-01-13, 09:31:06,VALID,919.039,VALID,0.0,VALID,70.422,VALID,587.719,VALID,25.688,INVALID,360.0,VALID,0.0,
2019-01-13, 09:32:06,VALID,919.02,VALID,0.0,VALID,69.849,VALID,587.603,VALID,25.886,INVALID,360.0,VALID,0.0,
2019-01-13, 09:33:06,VALID,919.006,VALID,0.0,VALID,68.038,VALID,585.65,VALID,25.792,VALID,80.0,VALID,0.0,
2019-01-13, 09:34:06,VALID,918.99,VALID,0.0,VALID,69.711,VALID,586.652,VALID,25.726,VALID,135.0,VALID,0.0,
2019-01-13, 09:35:06,VALID,918.964,VALID,0.0,VALID,69.55,VALID,588.613,VALID,25.853,VALID,199.0,VALID,0.0,
2019-01-13, 09:36:06,VALID,918.966,VALID,0.0,VALID,67.752,VALID,590.541,VALID,25.952,VALID,163.0,VALID,0.0,
2019-01-13, 09:37:06,VALID,918.958,VALID,0.0,VALID,67.724,VALID,592.396,VALID,25.791,VALID,137.0,VALID,0.0,
2019-01-13, 09:38:06,VALID,918.95,VALID,0.0,VALID,68.269,VALID,599.64,VALID,25.872,VALID,120.0,VALID,0.0,
2019-01-13, 09:39:06,VALID,918.932,VALID,0.0,VALID,69.795,VALID,605.241,VALID,25.932,VALID,71.0,VALID,0.0,
2019-01-13, 09:40:06,VALID,918.915,VALID,0.0,VALID,69.979,VALID,610.282,VALID,25.681,VALID,40.0,VALID,0.0,
2019-01-13, 09:41:06,VALID,918.921,VALID,0.0,VALID,69.737,VALID,620.302,VALID,25.438,VALID,24.0,VALID,0.0,
2019-01-13, 09:42:06,VALID,918.93,VALID,0.0,VALID,69.715,VALID,634.152,VALID,25.437,VALID,127.0,VALID,0.0,
2019-01-13, 09:43:06,VALID,918.944,VALID,0.0,VALID,71.149,VALID,642.9,VALID,25.662,VALID,96.0,VALID,0.0,
2019-01-13, 09:44:06,VALID,918.982,VALID,0.0,VALID,69.454,VALID,644.299,VALID,25.857,VALID,98.0,VALID,0.0,
2019-01-13, 09:45:06,VALID,918.975,VALID,0.0,VALID,69.89,VALID,645.166,VALID,25.826,VALID,108.0,VALID,0.0,
2019-01-13, 09:46:06,VALID,918.973,VALID,0.0,VALID,68.039,VALID,641.927,VALID,25.874,VALID,163.0,VALID,0.0,
2019-01-13, 09:47:06,VALID,918.98,VALID,0.0,VALID,67.629,VALID,640.441,VALID,25.911,VALID,129.0,VALID,0.0,
2019-01-13, 09:48:06,VALID,918.962,VALID,0.0,VALID,68.879,VALID,642.764,VALID,26.036,VALID,75.0,VALID,0.0,
2019-01-13, 09:49:06,VALID,918.959,VALID,0.0,VALID,69.248,VALID,645.493,VALID,26.155,VALID,111.0,VALID,0.0,
2019-01-13, 09:50:06,VALID,918.948,VALID,0.0,VALID,67.584,VALID,653.39,VALID,26.342,VALID,159.0,VALID,0.0,
2019-01-13, 09:51:06,VALID,918.964,VALID,0.0,VALID,67.051,VALID,665.042,VALID,26.42,VALID,114.0,VALID,0.0,
2019-01-13, 09:52:06,VALID,918.94,VALID,0.0,VALID,67.719,VALID,671.189,VALID,26.183,VALID,89.0,VALID,0.0,
2019-01-13, 09:53:06,VALID,918.929,VALID,0.0,VALID,67.81,VALID,680.069,VALID,25.857,VALID,267.0,VALID,0.0,
2019-01-13, 09:54:06,VALID,918.928,VALID,0.0,VALID,69.244,VALID,689.506,VALID,25.844,VALID,55.0,VALID,0.0,
2019-01-13, 09:55:06,VALID,918.92,VALID,0.0,VALID,68.621,VALID,696.354,VALID,26.147,VALID,98.0,VALID,0.0,
2019-01-13, 09:56:06,VALID,918.923,VALID,0.0,VALID,68.35,VALID,699.766,VALID,26.28,VALID,169.0,VALID,0.0,
2019-01-13, 09:57:06,VALID,918.922,VALID,0.0,VALID,66.477,VALID,715.051,VALID,26.291,VALID,127.0,VALID,0.0,
2019-01-13, 09:58:06,VALID,918.917,VALID,0.0,VALID,66.771,VALID,604.783,VALID,26.385,VALID,112.0,VALID,0.0,
2019-01-13, 09:59:06,VALID,918.915,VALID,0.0,VALID,66.09,VALID,227.053,VALID,26.584,VALID,159.0,VALID,0.0,
2019-01-13, 10:00:06,VALID,918.898,VALID,0.0,VALID,66.105,VALID,310.924,VALID,26.217,VALID,140.0,VALID,0.0,
2019-01-13, 10:01:06,VALID,918.881,VALID,0.0,VALID,67.237,VALID,424.959,VALID,25.948,VALID,145.0,VALID,0.0,
2019-01-13, 10:02:06,VALID,918.853,VALID,0.0,VALID,68.227,VALID,630.057,VALID,25.9,VALID,123.0,VALID,0.0,
2019-01-13, 10:03:06,VALID,918.842,VALID,0.0,VALID,68.261,VALID,627.991,VALID,26.068,VALID,162.0,VALID,0.0,
2019-01-13, 10:04:06,VALID,918.825,VALID,0.0,VALID,66.762,VALID,694.745,VALID,26.291,VALID,173.0,VALID,0.0,
2019-01-13, 10:05:06,VALID,918.808,VALID,0.0,VALID,65.766,VALID,793.377,VALID,26.244,VALID,183.0,VALID,0.0,
2019-01-13, 10:06:06,VALID,918.775,VALID,0.0,VALID,66.532,VALID,798.999,VALID,26.113,VALID,196.0,VALID,0.0,
2019-01-13, 10:07:06,VALID,918.766,VALID,0.0,VALID,67.795,VALID,781.237,VALID,26.22,VALID,145.0,VALID,0.0,
2019-01-13, 10:08:06,VALID,918.743,VALID,0.0,VALID,66.256,VALID,771.013,VALID,26.416,VALID,176.0,VALID,0.0,
2019-01-13, 10:09:06,VALID,918.717,VALID,0.0,VALID,65.48,VALID,777.823,VALID,26.331,VALID,189.0,VALID,0.0,
2019-01-13, 10:10:06,VALID,918.7,VALID,0.0,VALID,66.424,VALID,789.659,VALID,26.135,VALID,174.0,VALID,0.0,
2019-01-13, 10:11:06,VALID,918.697,VALID,0.0,VALID,67.107,VALID,786.042,VALID,26.156,VALID,161.0,VALID,0.0,
2019-01-13, 10:12:06,VALID,918.697,VALID,0.0,VALID,67.128,VALID,800.167,VALID,26.135,VALID,169.0,VALID,0.0,
2019-01-13, 10:13:06,VALID,918.691,VALID,0.0,VALID,67.793,VALID,803.38,VALID,26.289,VALID,126.0,VALID,0.0,
2019-01-13, 10:14:06,VALID,918.7,VALID,0.0,VALID,67.698,VALID,796.73,VALID,26.57,VALID,103.0,VALID,0.0,
2019-01-13, 10:15:06,VALID,918.701,VALID,0.0,VALID,65.453,VALID,800.197,VALID,26.533,VALID,105.0,VALID,0.0,
2019-01-13, 10:16:06,VALID,918.666,VALID,0.0,VALID,66.97,VALID,804.543,VALID,26.51,VALID,75.0,VALID,0.0,
2019-01-13, 10:17:06,VALID,918.644,VALID,0.0,VALID,65.733,VALID,804.088,VALID,26.86,VALID,68.0,VALID,0.0,
2019-01-13, 10:18:06,VALID,918.641,VALID,0.0,VALID,64.035,VALID,773.602,VALID,27.13,VALID,119.0,VALID,0.0,
2019-01-13, 10:19:06,VALID,918.598,VALID,0.0,VALID,63.156,VALID,639.289,VALID,26.72,VALID,129.0,VALID,0.0,
2019-01-13, 10:20:06,VALID,918.554,VALID,0.0,VALID,64.695,VALID,842.369,VALID,26.589,VALID,142.0,VALID,0.0,
2019-01-13, 10:21:06,VALID,918.528,VALID,0.0,VALID,63.592,VALID,844.739,VALID,26.646,VALID,159.0,VALID,0.0,
2019-01-13, 10:22:06,VALID,918.488,VALID,0.0,VALID,64.201,VALID,836.302,VALID,26.651,VALID,142.0,VALID,0.0,
2019-01-13, 10:23:06,VALID,918.479,VALID,0.0,VALID,64.779,VALID,837.98,VALID,26.657,VALID,184.0,VALID,0.0,
2019-01-13, 10:24:07,VALID,918.45,VALID,0.0,VALID,65.404,VALID,839.513,VALID,26.673,VALID,161.0,VALID,0.0,
2019-01-13, 10:25:07,VALID,918.435,VALID,0.0,VALID,65.608,VALID,833.541,VALID,27.128,VALID,108.0,VALID,0.0,
2019-01-13, 10:26:07,VALID,918.431,VALID,0.0,VALID,62.506,VALID,792.185,VALID,27.433,VALID,117.0,VALID,0.0,
2019-01-13, 10:27:07,VALID,918.394,VALID,0.0,VALID,63.287,VALID,859.307,VALID,27.566,VALID,48.0,VALID,0.0,
2019-01-13, 10:28:07,VALID,918.371,VALID,0.0,VALID,63.125,VALID,871.583,VALID,27.83,VALID,59.0,VALID,0.0,
2019-01-13, 10:29:07,VALID,918.376,VALID,0.0,VALID,62.769,VALID,876.114,VALID,27.757,VALID,351.0,VALID,0.0,
2019-01-13, 10:30:07,VALID,918.363,VALID,0.0,VALID,63.77,VALID,823.234,VALID,27.257,VALID,352.0,VALID,0.0,
2019-01-13, 10:31:07,VALID,918.369,VALID,0.0,VALID,64.662,VALID,825.625,VALID,26.921,VALID,306.0,VALID,0.0,
2019-01-13, 10:32:07,VALID,918.361,VALID,0.0,VALID,65.956,VALID,862.955,VALID,26.906,VALID,357.0,VALID,0.0,
2019-01-13, 10:33:07,VALID,918.351,VALID,0.0,VALID,65.404,VALID,892.249,VALID,27.106,VALID,356.0,VALID,0.0,
2019-01-13, 10:34:07,VALID,918.355,VALID,0.0,VALID,64.096,VALID,903.682,VALID,27.445,VALID,75.0,VALID,0.0,
2019-01-13, 10:35:07,VALID,918.349,VALID,0.0,VALID,64.195,VALID,891.549,VALID,27.543,VALID,28.0,VALID,0.0,
2019-01-13, 10:36:07,VALID,918.344,VALID,0.0,VALID,64.85,VALID,869.978,VALID,27.484,VALID,316.0,VALID,0.0,